Погода в Балви

Латвия     57°07′59″N   27°16′27″E
темп.,
°C
ветер,
м/с
пор.,
м/с
влажн.,
%
обл.,
%
осадки,
мм/ч
давл.,
гПа
погр.,
м
7 марта, вс
вс723:00−1зюз81683100 0.1 10021270
02:000зюз81697100 1.3 9981342
05:00−3зсз41481100 2.6 9981744
08:00−3зюз4977100 2.7 996641
11:00−2зсз81462100 3.1 9962081
14:00−2зсз8155599 3.3 9972160
17:00−3зсз61371100 0.1 9981464
20:00−4зсз51191100 0.4 998927
8 марта, пн
пн823:00−5сз41093100 0.3 1000724
02:00−8ссз379087 0.3 1003216
05:00−8сз4109162 0.0 1006590
08:00−8с598380 0.1 1009899
11:00−7ссз4875100 0.0 1012834
14:00−5с4771100 0.1 1014978
17:00−6ссз367575 0.0 1015813
20:00−10с249278 0.0 1017118
9 марта, вт
вт923:00−12ссз22941 0.0 101852
02:00−12сз22931 0.0 101929
05:00−13сз12928 0.0 102022
08:00−11юз118534 0.0 102174
11:00−6юз257594 0.0 1020503
14:00−3юз476596 0.0 1019914
17:00−3зюз4969100 0.0 1017860
20:00−4зюз51275100 0.0 1017595
10 марта, ср
ср1023:00−4зюз41281100 0.0 1017612
02:00−4зюз41085100 0.0 1017477
05:00−4з2696100 0.7 1018352
08:00−8св3693100 2.3 1019244
11:00−7всв468696 0.3 1020384
14:00−5всв468598 0.5 1020501
17:00−6всв4789100 0.2 1020519
20:00−8всв389398 0.3 1021428
11 марта, чт
чт1123:00−9всв3894100 0.1 1021399
02:00−11всв2696100 0.1 1021232
05:00−12всв269899 0.0 1020182
08:00−12вюв249599 0.1 1019179
11:00−6ююв248294 0.0 1017338
14:00−2ю477872 0.0 1014866
17:00−2ююв41077100 0.0 1011775
20:00−2ююв61474100 0.0 1008964